Content
SEND FEEDBACK

Daily
Averages
Monthly
Summary
United States of America

TAMUNING, GUAM


Home > North America > United States > Guam
Elevation: 250 feet     Latitude: 13 29N     Longitude: 144 47E

WEATHER
 
SELECT A DAY
Number of Records: 342,764;   Date Range: 1/1/95 - 9/22/14
 
SHARE

PRINT THIS DATA

[ ← Previous Day ]
WEATHER ALMANAC - JULY 2, 2014
[ Next Day → ]
[ °C ]   °F
Weather ElementAverageHighLow
Temperature83.1 °F86 °F (10:08 am)79.2 °F (3:58 am)
Dewpoint77.5 °F79 °F (8:58 am)75.2 °F (10:33 am)
Humidity83.5 %94 % (9:24 pm)74 % (10:33 am)
Barometer29.77 in29.83 in (8:13 am)29.69 in (6:58 pm)
Wind Speed11 mph17.3 mph (9:34 pm)
Wind Gust21.9 mph (2:06 pm)
Weather ElementAverage
Visibility9.8 mi
Wind DirectionENE (51.6 °)

Weather ElementTotal
Precipitation0.03 in
Cooling Degree Days17.6 (Base 65)
Growing Degree Days32.6 (Base 50)
Averaged from 80 records on July 2, 2014
WEATHER CONDITIONS BREAKOUT
WIND DIRECTION BREAKOUT
WEATHER BY HOUR - JULY 2, 2014
[ °C ]   °F
Local TimeTemperatureDewpointHumidityBarometerVisibilityWind DirectionWind SpeedGust SpeedPrecipitationEventsConditions
1:58 AM80.6 °F75.7 °F85 %29.77 in10.0 miEast (100°)2.3 mphClear
2:58 AM79.5 °F75.7 °F88 %29.76 in10.0 miCalmClear
3:58 AM79.2 °F75.9 °F90 %29.76 in10.0 miEast (80°)1.2 mphClear
4:58 AM79.2 °F75.4 °F88 %29.75 in10.0 miNorth (360°)2.3 mphClear
5:58 AM80.1 °F76.6 °F89 %29.75 in10.0 miENE (60°)5.8 mphClear
6:58 AM81.7 °F77.5 °F87 %29.77 in10.0 miNE (40°)6.9 mphClear
7:38 AM84.2 °F77.0 °F79 %29.82 in10.0 miNNE (30°)6.9 mphMostly Cloudy
7:43 AM84.2 °F77.0 °F79 %29.82 in10.0 miNE (50°)6.9 mphMostly Cloudy
7:48 AM84.2 °F78.8 °F84 %29.82 in10.0 miNE (40°)6.9 mphScattered Clouds
7:58 AM83.8 °F77.9 °F82 %29.79 in10.0 miNE (40°)8.1 mphScattered Clouds
8:13 AM84.2 °F77.0 °F79 %29.83 in10.0 miNE (40°)9.2 mphMostly Cloudy
8:23 AM84.2 °F77.0 °F79 %29.82 in10.0 miNE (50°)8.1 mphMostly Cloudy
8:38 AM84.2 °F77.0 °F79 %29.83 in7.0 miNNE (30°)5.8 mphMostly Cloudy
8:58 AM82.8 °F79.0 °F88 %29.77 in7.0 miNNE (20°)8.1 mphMostly Cloudy
9:03 AM84.2 °F78.8 °F84 %29.80 in10.0 miNNE (20°)6.9 mphScattered Clouds
9:08 AM82.4 °F78.8 °F89 %29.81 in10.0 miNE (40°)9.2 mphMostly Cloudy
9:13 AM82.4 °F78.8 °F89 %29.81 in10.0 miNNE (30°)8.1 mphMostly Cloudy
9:18 AM84.2 °F78.8 °F84 %29.81 in10.0 miNE (40°)10.4 mphScattered Clouds
9:28 AM84.2 °F78.8 °F84 %29.82 in10.0 miNNE (20°)8.1 mphMostly Cloudy
9:33 AM84.2 °F78.8 °F84 %29.81 in10.0 miNNE (20°)10.4 mphMostly Cloudy
9:38 AM84.2 °F78.8 °F84 %29.81 in10.0 miNNE (30°)9.2 mphScattered Clouds
9:58 AM84.9 °F78.1 °F80 %29.78 in10.0 miNE (40°)9.2 mphScattered Clouds
10:03 AM84.2 °F78.8 °F84 %29.81 in10.0 miNE (40°)9.2 mphMostly Cloudy
10:08 AM86.0 °F78.8 °F79 %29.81 in10.0 miNE (40°)9.2 mphMostly Cloudy
10:13 AM86.0 °F78.8 °F79 %29.81 in10.0 miNE (40°)12.7 mphScattered Clouds
10:33 AM84.2 °F75.2 °F74 %29.81 in10.0 miENE (60°)13.8 mphMostly Cloudy
10:38 AM84.2 °F75.2 °F74 %29.81 in10.0 miENE (60°)12.7 mphScattered Clouds
10:48 AM86.0 °F77.0 °F74 %29.81 in10.0 miNE (50°)13.8 mphMostly Cloudy
10:58 AM83.8 °F76.1 °F77 %29.77 in10.0 miNE (40°)12.7 mphMostly Cloudy
11:03 AM84.2 °F75.2 °F74 %29.80 in10.0 miNE (40°)12.7 mphScattered Clouds
11:12 AM84.2 °F77.0 °F79 %29.79 in10.0 miNE (40°)12.7 mphRainLight Rain
11:17 AM82.4 °F78.8 °F89 %29.79 in10.0 miNNE (30°)15.0 mphRainLight Rain
11:32 AM82.4 °F78.8 °F89 %29.79 in6.0 miNE (40°)12.7 mphRainHeavy Rain
11:37 AM80.6 °F77.0 °F89 %29.79 in5.0 miNE (40°)10.4 mphRainRain
11:44 AM82.4 °F78.8 °F89 %29.79 in10.0 miNE (40°)8.1 mphScattered Clouds
11:49 AM84.2 °F78.8 °F84 %29.80 in10.0 miNNE (30°)9.2 mphMostly Cloudy
11:58 AM83.3 °F78.4 °F85 %29.76 in10.0 miNorth (10°)9.2 mph0.02 inMostly Cloudy
12:03 PM82.4 °F77.0 °F84 %29.78 in10.0 miNNE (20°)6.9 mphScattered Clouds
12:23 PM82.4 °F77.0 °F84 %29.77 in10.0 miNE (40°)12.7 mphMostly Cloudy
12:28 PM82.4 °F77.0 °F84 %29.77 in10.0 miNNE (30°)10.4 mphMostly Cloudy
12:53 PM84.2 °F77.0 °F79 %29.78 in10.0 miNE (40°)13.8 mphMostly Cloudy
12:58 PM84.4 °F76.6 °F77 %29.75 in10.0 miNE (40°)15.0 mphMostly Cloudy
1:08 PM84.2 °F75.2 °F74 %29.77 in10.0 miNE (50°)12.7 mphMostly Cloudy
1:13 PM84.2 °F77.0 °F79 %29.77 in10.0 miNE (40°)11.5 mphMostly Cloudy
1:18 PM84.2 °F77.0 °F79 %29.76 in10.0 miNE (40°)10.4 mphMostly Cloudy
1:38 PM82.4 °F75.2 °F79 %29.77 in10.0 miNE (40°)11.5 mphMostly Cloudy
1:48 PM84.2 °F77.0 °F79 %29.76 in10.0 miNNE (30°)12.7 mphMostly Cloudy
1:58 PM83.7 °F76.8 °F80 %29.72 in10.0 miNE (50°)13.8 mphMostly Cloudy
2:06 PM82.4 °F77.0 °F84 %29.75 in10.0 miNE (40°)15.0 mph21.9 mphRainLight Rain
2:24 PM82.4 °F78.8 °F89 %29.74 in10.0 miNE (40°)11.5 mphMostly Cloudy
2:35 PM82.4 °F77.0 °F84 %29.74 in10.0 miNE (40°)12.7 mphScattered Clouds
2:58 PM84.7 °F78.3 °F81 %29.71 in10.0 miNE (50°)12.7 mph0.01 inPartly Cloudy
3:58 PM84.9 °F78.3 °F80 %29.70 in10.0 miENE (60°)12.7 mphScattered Clouds
4:13 PM84.2 °F78.8 °F84 %29.72 in10.0 miNE (50°)11.5 mphMostly Cloudy
4:23 PM86.0 °F77.0 °F74 %29.72 in10.0 miNE (50°)12.7 mphScattered Clouds
4:53 PM84.2 °F78.8 °F84 %29.73 in10.0 miNE (50°)10.4 mphMostly Cloudy
4:58 PM84.7 °F78.4 °F81 %29.70 in10.0 miENE (60°)13.8 mphMostly Cloudy
5:08 PM84.2 °F78.8 °F84 %29.74 in10.0 miNE (50°)12.7 mphMostly Cloudy
5:13 PM84.2 °F78.8 °F84 %29.74 in10.0 miENE (60°)12.7 mphMostly Cloudy
5:18 PM84.2 °F78.8 °F84 %29.74 in10.0 miENE (60°)15.0 mphMostly Cloudy
5:38 PM84.2 °F77.0 °F79 %29.73 in10.0 miENE (70°)13.8 mphScattered Clouds
5:58 PM83.3 °F77.4 °F82 %29.70 in10.0 miENE (70°)12.7 mphPartly Cloudy
6:58 PM82.8 °F76.5 °F81 %29.69 in10.0 miNE (50°)10.4 mphClear
7:58 PM82.0 °F77.2 °F85 %29.71 in10.0 miNE (50°)15.0 mphScattered Clouds
8:08 PM82.4 °F77.0 °F84 %29.75 in10.0 miENE (60°)12.7 mphMostly Cloudy
8:28 PM82.4 °F77.0 °F84 %29.75 in10.0 miENE (60°)12.7 mphScattered Clouds
8:58 PM82.0 °F77.0 °F85 %29.72 in10.0 miENE (60°)13.8 mphScattered Clouds
9:03 PM82.4 °F77.0 °F84 %29.75 in10.0 miENE (70°)13.8 mphMostly Cloudy
9:04 PM82.4 °F77.0 °F84 %29.75 in9.0 miENE (70°)16.1 mphLight Drizzle
9:09 PM82.4 °F77.0 °F84 %29.76 in8.0 miENE (60°)16.1 mphRainLight Rain
9:14 PM80.6 °F77.0 °F89 %29.76 in10.0 miENE (70°)15.0 mphMostly Cloudy
9:19 PM80.6 °F77.0 °F89 %29.76 in10.0 miENE (70°)12.7 mphMostly Cloudy
9:24 PM80.6 °F78.8 °F94 %29.76 in10.0 miENE (70°)15.0 mphScattered Clouds
9:34 PM82.4 °F77.0 °F84 %29.76 in10.0 miENE (60°)17.3 mphMostly Cloudy
9:49 PM82.4 °F78.8 °F89 %29.76 in10.0 miENE (60°)12.7 mphMostly Cloudy
9:58 PM81.3 °F77.9 °F89 %29.72 in10.0 miENE (60°)12.7 mph0.00 inMostly Cloudy
10:18 PM80.6 °F78.8 °F94 %29.76 in10.0 miEast (80°)12.7 mphMostly Cloudy
10:28 PM80.6 °F78.8 °F94 %29.76 in10.0 miENE (70°)12.7 mphScattered Clouds
10:58 PM81.1 °F78.6 °F92 %29.73 in10.0 miENE (70°)10.4 mphScattered Clouds
11:58 PM81.3 °F77.5 °F88 %29.71 in10.0 miEast (90°)12.7 mphScattered Clouds
Hourly data recorded from PGUA, located miles away from Tamuning, Guam







STORIES FROM OUR PARTNERS